Tracking 19638 objects as of 19-Apr-2019
HD Live streaming from Space Station
objects crossing your sky now

RSP-00

Track RSP-00 now!
10-day predictions
RSP-00 is classified as:


NORAD ID: 43639
Int'l Code: 1998-067PP
Perigee: 396.8 km
Apogee: 404.2 km
Inclination: 51.6 °
Period: 92.4 minutes
Semi major axis: 6771 km
RCS: Unknown
Launch date: November 20, 1998
Source: (TBD)
Launch site: TYURATAM MISSILE AND SPACE COMPLEX (TTMTR)

Uplink (MHz):
Downlink (MHz): 145.890/436.930
Beacon (MHz): 145.890
Mode: 1k2AFSK 38k4 pi/4QPSK CW
Call sign: 8J1RSP
Status: Inactive

aabbcc
Your satellite tracking list
Your tracking list is empty




NASA's NSSDC Master Catalog

Two Line Element Set (TLE):
1 43639U 98067PP  19107.94942701 +.00010781 +00000-0 +14724-3 0  9997
2 43639 051.6383 296.7097 0005442 223.6486 136.4076 15.58037973030108
Source of the keplerian elements: AFSPC